FW6587 Weather Reports


Display with metric or nautical units.
time (UTC)temp
F
wind
direction
speed
MPH
gust
MPH
rain 1hr
in
rain 24hr
in
rain mn
in
humidity
%
barometer
mb
20220524164557 46 0 0.0 5.0 0.00 0.06 0.01 83 1025.9
20220524164050 46 360 0.0 5.0 0.00 0.06 0.01 82 1025.8
20220524163548 46 360 0.0 2.0 0.00 0.06 0.01 84 1026.0
20220524163100 45 0 0.0 2.0 0.00 0.06 0.01 84 1025.9
20220524162548 45 0 0.0 3.0 0.00 0.06 0.01 85 1026.0
20220524162044 44 0 0.0 4.0 0.00 0.06 0.01 85 1026.1
20220524161601 44 0 0.0 4.0 0.00 0.06 0.01 85 1026.1
20220524161045 44 0 0.0 4.0 0.00 0.06 0.01 85 1026.1
20220524160548 45 360 0.0 4.0 0.00 0.06 0.01 85 1026.1
20220524160101 45 0 1.0 5.0 0.00 0.06 0.01 84 1026.1
20220524155547 45 360 0.0 5.0 0.00 0.06 0.01 84 1026.2
20220524155046 45 360 0.0 4.0 0.00 0.06 0.01 84 1026.3
20220524154619 45 360 1.0 4.0 0.00 0.06 0.01 84 1026.2
20220524154046 45 0 0.0 5.0 0.00 0.06 0.01 85 1026.1
20220524153547 45 0 1.0 5.0 0.00 0.06 0.01 84 1026.2
20220524153104 45 360 0.0 2.0 0.00 0.06 0.01 85 1026.4
20220524152547 45 0 0.0 5.0 0.00 0.06 0.01 85 1026.4
20220524152046 45 360 0.0 5.0 0.00 0.06 0.01 85 1026.3
20220524151552 45 0 0.0 5.0 0.00 0.06 0.01 85 1026.4
20220524151049 45 0 0.0 5.0 0.00 0.06 0.01 84 1026.4
20220524150548 45 0 0.0 4.0 0.00 0.06 0.01 85 1026.4
20220524150110 45 360 0.0 4.0 0.00 0.06 0.01 86 1026.3
20220524145545 45 360 0.0 3.0 0.00 0.06 0.01 86 1026.3
20220524145048 45 360 0.0 3.0 0.00 0.06 0.01 86 1026.2
20220524144612 44 0 0.0 3.0 0.00 0.06 0.01 86 1026.2
20220524144048 44 0 0.0 4.0 0.00 0.06 0.01 86 1026.1
20220524143545 44 360 0.0 4.0 0.00 0.06 0.01 86 1026.2
20220524143111 45 0 0.0 3.0 0.00 0.06 0.01 86 1026.2
20220524142543 45 0 0.0 3.0 0.00 0.06 0.01 86 1026.2
20220524142047 45 0 0.0 2.0 0.00 0.06 0.01 86 1026.1
20220524141600 45 0 0.0 3.0 0.00 0.06 0.01 86 1026.1
20220524141044 45 0 0.0 3.0 0.00 0.06 0.01 86 1026.1
20220524140545 45 0 0.0 3.0 0.00 0.06 0.01 86 1026.0
20220524140109 45 0 0.0 2.0 0.00 0.06 0.01 87 1026.2
20220524135542 44 0 0.0 2.0 0.00 0.06 0.01 87 1026.2
20220524135043 44 0 0.0 1.0 0.00 0.06 0.01 88 1026.3
20220524134605 44 0 0.0 0.0 0.00 0.06 0.01 88 1026.2
20220524134042 44 0 0.0 1.0 0.00 0.06 0.01 87 1026.1
20220524133548 44 0 0.0 1.0 0.00 0.06 0.01 88 1026.1
20220524133108 43 0 0.0 1.0 0.00 0.06 0.01 88 1026.2
20220524132546 44 0 0.0 1.0 0.00 0.06 0.01 89 1026.2
20220524132045 43 0 0.0 1.0 0.00 0.06 0.01 89 1026.2
20220524131604 43 0 0.0 1.0 0.00 0.06 0.01 89 1026.3
20220524131042 43 0 0.0 1.0 0.00 0.06 0.01 89 1026.4
20220524130546 43 0 0.0 0.0 0.00 0.06 0.01 89 1026.2
20220524130107 43 0 0.0 0.0 0.00 0.06 0.01 89 1026.3
20220524125545 43 0 0.0 0.0 0.00 0.06 0.01 89 1026.4
20220524125044 43 0 0.0 1.0 0.00 0.06 0.01 89 1026.4
20220524124600 43 0 0.0 1.0 0.00 0.06 0.01 90 1026.3
20220524124044 43 0 0.0 1.0 0.00 0.06 0.01 90 1026.2
20220524123543 43 0 0.0 0.0 0.00 0.06 0.01 90 1026.1
20220524123104 43 0 0.0 0.0 0.00 0.06 0.01 90 1026.1
20220524122545 42 0 0.0 0.0 0.00 0.06 0.01 90 1026.0
20220524122050 42 0 0.0 0.0 0.00 0.06 0.01 90 1026.0
20220524121605 42 0 0.0 0.0 0.00 0.06 0.01 90 1026.0
20220524121046 42 0 0.0 0.0 0.00 0.06 0.01 90 1026.0
20220524120543 42 0 0.0 0.0 0.00 0.06 0.01 90 1025.9
20220524120107 42 0 0.0 0.0 0.00 0.06 0.01 90 1026.0
20220524115543 42 0 0.0 0.0 0.00 0.06 0.01 90 1025.9
20220524115043 42 0 0.0 0.0 0.00 0.06 0.01 90 1026.0
20220524114603 42 0 0.0 0.0 0.00 0.06 0.01 90 1026.0
20220524114048 42 0 0.0 0.0 0.00 0.06 0.01 90 1026.0
20220524113547 42 0 0.0 0.0 0.00 0.06 0.01 90 1026.0
20220524113108 42 0 0.0 0.0 0.00 0.06 0.01 90 1026.0
20220524112544 42 0 0.0 0.0 0.00 0.06 0.01 90 1025.9
20220524112044 42 0 0.0 0.0 0.00 0.06 0.01 90 1026.0
20220524111610 42 0 0.0 0.0 0.00 0.06 0.01 90 1025.9
20220524111047 42 0 0.0 0.0 0.00 0.06 0.01 90 1026.0
20220524110550 42 0 0.0 0.0 0.00 0.06 0.01 90 1026.0
20220524110146 42 0 0.0 2.0 0.00 0.06 0.01 90 1025.9
20220524105551 42 0 0.0 2.0 0.00 0.06 0.01 89 1026.0
20220524105046 42 0 0.0 0.0 0.00 0.06 0.01 89 1025.9
20220524104608 42 0 0.0 1.0 0.00 0.06 0.01 89 1026.0
20220524104046 42 0 0.0 1.0 0.00 0.06 0.01 89 1026.0
20220524103547 43 0 0.0 1.0 0.00 0.06 0.01 89 1026.1
20220524103106 43 0 0.0 2.0 0.00 0.06 0.01 89 1026.2
20220524102547 43 0 0.0 2.0 0.00 0.06 0.01 89 1026.3
20220524102049 43 360 0.0 1.0 0.00 0.06 0.01 89 1026.3
20220524101602 43 0 0.0 1.0 0.00 0.06 0.01 89 1026.2
20220524101048 43 0 0.0 0.0 0.00 0.06 0.01 88 1026.4
20220524100547 43 0 0.0 0.0 0.00 0.06 0.01 88 1026.4
20220524100059 43 0 0.0 0.0 0.00 0.06 0.01 88 1026.4
20220524095546 43 0 0.0 0.0 0.00 0.06 0.01 88 1026.4
20220524095047 43 0 0.0 1.0 0.00 0.06 0.01 88 1026.3
20220524094604 43 0 0.0 3.0 0.00 0.06 0.01 88 1026.3
20220524094046 43 0 0.0 3.0 0.00 0.06 0.01 88 1026.3
20220524093547 44 0 0.0 0.0 0.00 0.06 0.01 88 1026.3
20220524093102 44 0 0.0 0.0 0.00 0.06 0.01 88 1026.3
20220524092547 44 0 0.0 1.0 0.00 0.06 0.01 88 1026.4
20220524092049 44 0 0.0 2.0 0.00 0.06 0.01 88 1026.5
20220524091557 44 0 0.0 2.0 0.00 0.06 0.01 88 1026.4
20220524091046 44 0 0.0 1.0 0.00 0.06 0.01 88 1026.3
20220524090548 44 0 0.0 1.0 0.00 0.06 0.01 88 1026.3
20220524090101 44 0 0.0 1.0 0.00 0.06 0.01 88 1026.3
20220524085547 44 0 0.0 2.0 0.00 0.06 0.01 87 1026.3
20220524085045 44 0 0.0 2.0 0.00 0.06 0.01 88 1026.3
20220524084559 44 0 0.0 0.0 0.00 0.06 0.01 88 1026.4
20220524084045 44 0 0.0 1.0 0.01 0.06 0.01 87 1026.6
20220524083547 44 0 0.0 1.0 0.01 0.06 0.01 87 1026.6
20220524083103 44 0 0.0 0.0 0.01 0.06 0.01 87 1026.6
20220524082602 44 0 0.0 0.0 0.01 0.06 0.01 87 1026.7
20220524082047 44 0 0.0 0.0 0.01 0.06 0.01 87 1026.6
20220524081558 44 0 0.0 0.0 0.01 0.06 0.01 87 1026.6
20220524081046 44 0 0.0 0.0 0.01 0.06 0.01 87 1026.8
20220524080547 44 0 0.0 1.0 0.01 0.06 0.01 87 1026.6
20220524080107 44 0 0.0 1.0 0.01 0.06 0.01 87 1026.5
20220524075546 44 0 0.0 1.0 0.01 0.06 0.01 87 1026.4
20220524075047 44 0 0.0 0.0 0.01 0.06 0.01 86 1026.6
20220524074632 45 0 0.0 1.0 0.01 0.06 0.01 86 1026.9
20220524074046 45 0 0.0 2.0 0.00 0.05 0.00 86 1026.9
20220524073547 45 0 0.0 2.0 0.00 0.05 0.00 85 1026.9
20220524073055 45 0 0.0 1.0 0.00 0.05 0.00 85 1027.0
20220524072546 45 0 0.0 3.0 0.00 0.05 0.00 84 1027.1
20220524072047 45 0 0.0 3.0 0.00 0.05 0.00 84 1027.2
20220524071559 45 0 0.0 1.0 0.00 0.05 0.00 84 1027.3
20220524071046 45 0 0.0 1.0 0.00 0.05 0.00 84 1027.2
20220524070548 45 0 0.0 1.0 0.00 0.05 0.00 84 1027.2
20220524070110 45 0 0.0 1.0 0.00 0.05 0.00 84 1027.0
20220524065546 45 0 0.0 1.0 0.00 0.05 0.00 84 1026.9
20220524065046 45 0 0.0 1.0 0.00 0.05 0.00 85 1026.8
20220524064553 45 0 0.0 1.0 0.00 0.05 0.00 85 1026.7
20220524064048 45 0 0.0 0.0 0.00 0.05 0.00 84 1026.8
20220524063546 45 0 0.0 0.0 0.00 0.05 0.00 84 1026.8
20220524063100 45 0 0.0 1.0 0.00 0.05 0.00 84 1026.8
20220524062546 45 0 0.0 1.0 0.00 0.05 0.00 84 1026.8
20220524062046 45 0 0.0 0.0 0.00 0.05 0.00 84 1027.0
20220524061603 45 0 0.0 1.0 0.00 0.05 0.00 84 1027.0
20220524061048 45 0 0.0 1.0 0.00 0.05 0.00 84 1027.0
20220524060546 45 0 0.0 2.0 0.00 0.05 0.00 84 1027.0
20220524060108 45 0 0.0 2.0 0.00 0.05 0.00 84 1027.2
20220524055547 45 360 0.0 2.0 0.00 0.05 0.05 84 1027.2
20220524055045 45 0 0.0 2.0 0.00 0.05 0.05 84 1027.2
20220524054609 45 0 0.0 1.0 0.00 0.05 0.05 84 1027.3
20220524054056 45 0 0.0 1.0 0.00 0.05 0.05 84 1027.3
20220524053546 45 0 0.0 1.0 0.00 0.05 0.05 84 1027.4
20220524053111 45 0 0.0 1.0 0.00 0.05 0.05 84 1027.3
20220524052547 45 0 0.0 0.0 0.00 0.05 0.05 84 1027.3
20220524052047 45 0 0.0 0.0 0.00 0.05 0.05 84 1027.4
20220524051604 45 0 0.0 0.0 0.00 0.05 0.05 84 1027.6
20220524051050 45 0 0.0 0.0 0.00 0.05 0.05 84 1027.6
20220524050545 45 0 0.0 0.0 0.01 0.05 0.05 83 1027.6
20220524050055 45 0 0.0 0.0 0.01 0.05 0.05 83 1027.6
20220524045547 45 0 0.0 3.0 0.01 0.05 0.05 83 1027.6
20220524045050 45 0 0.0 3.0 0.01 0.05 0.05 83 1027.6
20220524044557 45 0 0.0 1.0 0.01 0.05 0.05 83 1027.6
20220524044043 45 0 0.0 3.0 0.01 0.05 0.05 83 1027.7
20220524043543 46 0 0.0 3.0 0.01 0.05 0.05 84 1027.7
20220524043058 46 360 0.0 2.0 0.01 0.05 0.05 84 1027.7
20220524042546 46 0 0.0 2.0 0.01 0.05 0.05 84 1027.7
20220524042047 46 0 0.0 2.0 0.01 0.05 0.05 84 1027.8
20220524041559 46 0 0.0 3.0 0.01 0.05 0.05 83 1027.8
20220524041047 46 0 0.0 3.0 0.01 0.05 0.05 83 1027.9
20220524040546 46 0 0.0 2.0 0.00 0.04 0.04 84 1027.9
20220524040051 46 360 0.0 2.0 0.00 0.04 0.04 84 1027.8
20220524035547 46 0 0.0 1.0 0.00 0.04 0.04 84 1027.8
20220524035051 46 0 0.0 1.0 0.01 0.04 0.04 84 1027.7
20220524034608 46 0 0.0 0.0 0.01 0.04 0.04 84 1027.7
20220524034046 46 0 0.0 1.0 0.01 0.04 0.04 84 1027.5
20220524033546 46 0 0.0 1.0 0.02 0.04 0.04 84 1027.7
20220524033103 46 0 0.0 1.0 0.02 0.04 0.04 83 1027.6
20220524032546 46 0 0.0 1.0 0.02 0.04 0.04 83 1027.5
20220524032049 46 0 0.0 1.0 0.03 0.04 0.04 83 1027.5
20220524031616 46 0 0.0 1.0 0.03 0.04 0.04 84 1027.5
20220524031047 46 0 0.0 3.0 0.04 0.04 0.04 83 1027.4
20220524030546 46 0 0.0 3.0 0.04 0.04 0.04 83 1027.3
20220524030102 46 0 0.0 4.0 0.04 0.04 0.04 82 1027.4
20220524025546 47 0 0.0 4.0 0.04 0.04 0.04 81 1027.4
20220524025045 46 0 0.0 2.0 0.03 0.03 0.03 79 1027.3
20220524024611 47 0 0.0 1.0 0.03 0.03 0.03 79 1027.2
20220524024048 47 0 0.0 1.0 0.03 0.03 0.03 79 1027.2
20220524023546 47 0 0.0 1.0 0.02 0.02 0.02 78 1027.1
20220524023129 47 0 0.0 1.0 0.02 0.02 0.02 79 1027.1
20220524022545 47 0 0.0 3.0 0.02 0.02 0.02 77 1027.1
20220524022047 47 0 0.0 3.0 0.01 0.01 0.01 76 1027.1
20220524021604 47 0 0.0 2.0 0.01 0.01 0.01 75 1027.0
20220524021047 47 0 0.0 2.0 0.00 0.00 0.00 75 1027.0
20220524020546 48 360 0.0 2.0 0.00 0.00 0.00 75 1026.9
20220524020101 48 0 0.0 3.0 0.00 0.00 0.00 74 1027.0
20220524015545 48 0 0.0 5.0 0.00 0.00 0.00 72 1026.8
20220524015051 49 0 0.0 5.0 0.00 0.00 0.00 72 1026.8
20220524014605 50 360 0.0 4.0 0.00 0.00 0.00 69 1026.8
20220524014046 50 0 0.0 2.0 0.00 0.00 0.00 67 1026.7
20220524013545 50 360 0.0 4.0 0.00 0.00 0.00 65 1026.7
20220524013108 50 0 0.0 4.0 0.00 0.00 0.00 65 1026.6
20220524012547 51 0 0.0 3.0 0.00 0.00 0.00 65 1026.6
20220524012046 51 0 1.0 3.0 0.00 0.00 0.00 64 1026.5
20220524011604 51 0 0.0 4.0 0.00 0.00 0.00 65 1026.4
20220524011050 51 0 0.0 4.0 0.00 0.00 0.00 63 1026.4
20220524010547 52 360 0.0 4.0 0.00 0.00 0.00 61 1026.3
20220524010055 53 0 0.0 6.0 0.00 0.00 0.00 58 1026.2
20220524005548 53 0 1.0 9.0 0.00 0.00 0.00 56 1026.2
20220524005049 54 0 1.0 10.0 0.00 0.00 0.00 55 1026.1
20220524004556 54 360 1.0 11.0 0.00 0.00 0.00 55 1026.0
20220524004050 54 360 1.0 11.0 0.00 0.00 0.00 54 1026.0
20220524003547 55 360 1.0 11.0 0.00 0.00 0.00 52 1025.7
20220524003105 55 360 1.0 5.0 0.00 0.00 0.00 50 1025.6
20220524002546 55 0 1.0 5.0 0.00 0.00 0.00 48 1025.6
20220524002045 56 0 0.0 5.0 0.00 0.00 0.00 44 1025.6
20220524001614 56 0 0.0 3.0 0.00 0.00 0.00 43 1025.6
20220524001045 56 360 0.0 3.0 0.00 0.00 0.00 44 1025.5
20220524000546 56 0 0.0 8.0 0.00 0.00 0.00 42 1025.5
20220524000103 56 360 0.0 8.0 0.00 0.00 0.00 45 1025.5
20220523235542 56 0 0.0 3.0 0.00 0.00 0.00 43 1025.6
20220523235043 56 0 0.0 2.0 0.00 0.00 0.00 43 1025.5
20220523234600 56 0 0.0 6.0 0.00 0.00 0.00 43 1025.5
20220523234044 57 360 1.0 6.0 0.00 0.00 0.00 42 1025.5
20220523233549 57 360 0.0 6.0 0.00 0.00 0.00 42 1025.5
20220523233101 57 0 0.0 6.0 0.00 0.00 0.00 42 1025.5
20220523232547 57 0 0.0 5.0 0.00 0.00 0.00 43 1025.3
20220523232046 57 0 1.0 6.0 0.00 0.00 0.00 43 1025.4
20220523231603 57 0 0.0 6.0 0.00 0.00 0.00 42 1025.3
20220523231051 57 0 0.0 6.0 0.00 0.00 0.00 42 1025.2
20220523230546 57 0 0.0 11.0 0.00 0.00 0.00 44 1025.2
20220523230105 57 360 1.0 11.0 0.00 0.00 0.00 42 1025.1
20220523225547 57 360 1.0 10.0 0.00 0.00 0.00 43 1025.1
20220523225044 57 360 2.0 10.0 0.00 0.00 0.00 42 1025.0
20220523224555 58 360 2.0 10.0 0.00 0.00 0.00 41 1024.8
20220523224050 59 0 1.0 10.0 0.00 0.00 0.00 40 1024.8
20220523223546 60 61 1.0 8.0 0.00 0.00 0.00 37 1024.7
20220523223100 61 0 1.0 10.0 0.00 0.00 0.00 36 1024.7
20220523222549 63 56 2.0 10.0 0.00 0.00 0.00 36 1024.7
20220523222043 62 84 0.0 6.0 0.00 0.00 0.00 39 1024.6
20220523221600 62 15 0.0 4.0 0.00 0.00 0.00 38 1024.7
20220523221051 61 57 0.0 4.0 0.00 0.00 0.00 39 1024.8
20220523220546 60 0 0.0 4.0 0.00 0.00 0.00 39 1024.7
20220523220107 60 360 0.0 3.0 0.00 0.00 0.00 43 1024.7
20220523215547 58 0 0.0 3.0 0.00 0.00 0.00 40 1024.8
20220523215048 58 0 0.0 6.0 0.00 0.00 0.00 41 1024.8
20220523214602 59 0 1.0 6.0 0.00 0.00 0.00 41 1024.8
20220523214047 59 360 0.0 4.0 0.00 0.00 0.00 42 1024.6
20220523213547 58 360 0.0 2.0 0.00 0.00 0.00 42 1024.8
20220523213103 58 0 0.0 4.0 0.00 0.00 0.00 44 1024.8
20220523212546 58 0 1.0 4.0 0.00 0.00 0.00 44 1024.9
20220523212044 58 360 0.0 4.0 0.00 0.00 0.00 45 1024.8
20220523211556 58 0 0.0 8.0 0.00 0.00 0.00 44 1024.8
20220523211047 59 360 0.0 8.0 0.00 0.00 0.00 46 1024.9
20220523210547 59 360 0.0 3.0 0.00 0.00 0.00 45 1024.8
20220523210104 59 0 0.0 6.0 0.00 0.00 0.00 47 1024.8
20220523205546 59 0 1.0 6.0 0.00 0.00 0.00 43 1024.8
20220523205054 59 360 1.0 6.0 0.00 0.00 0.00 47 1024.9
20220523204621 59 0 0.0 6.0 0.00 0.00 0.00 49 1024.9
20220523204043 60 360 1.0 6.0 0.00 0.00 0.00 49 1024.8
20220523203545 58 360 2.0 6.0 0.00 0.00 0.00 49 1024.8
20220523203057 56 0 0.0 4.0 0.00 0.00 0.00 51 1025.0
20220523202544 56 0 0.0 6.0 0.00 0.00 0.00 50 1025.0
20220523202045 57 360 1.0 6.0 0.00 0.00 0.00 50 1025.0
20220523201604 56 360 1.0 5.0 0.00 0.00 0.00 51 1025.0
20220523201046 56 360 1.0 5.0 0.00 0.00 0.00 53 1024.9
20220523200543 56 0 0.0 4.0 0.00 0.00 0.00 53 1025.0
20220523200122 56 360 1.0 6.0 0.00 0.00 0.00 52 1025.1
20220523195544 56 0 1.0 8.0 0.00 0.00 0.00 53 1025.2
20220523195047 55 360 1.0 10.0 0.00 0.00 0.00 53 1025.0
20220523194601 56 0 0.0 10.0 0.00 0.00 0.00 52 1025.0
20220523194046 57 0 1.0 10.0 0.00 0.00 0.00 50 1025.1
20220523193546 57 360 0.0 6.0 0.00 0.00 0.00 49 1024.9
20220523193058 58 0 0.0 6.0 0.00 0.00 0.00 46 1024.9
20220523192543 58 0 0.0 4.0 0.00 0.00 0.00 45 1024.8
20220523192042 60 0 0.0 5.0 0.00 0.00 0.00 45 1024.8
20220523191600 60 0 0.0 5.0 0.00 0.00 0.00 46 1024.8
20220523191045 59 104 0.0 5.0 0.00 0.00 0.00 45 1024.8
20220523190544 59 0 1.0 8.0 0.00 0.00 0.00 45 1024.8
20220523190107 61 0 1.0 8.0 0.00 0.00 0.00 44 1024.8
20220523185544 61 0 0.0 3.0 0.00 0.00 0.00 47 1024.8
20220523185047 60 0 0.0 6.0 0.00 0.00 0.00 49 1024.8
20220523184600 60 325 1.0 9.0 0.00 0.00 0.00 45 1025.0
20220523184048 60 83 1.0 9.0 0.00 0.00 0.00 49 1025.0
20220523183550 59 70 1.0 9.0 0.00 0.00 0.00 50 1025.0
20220523183104 59 0 2.0 7.0 0.00 0.00 0.00 49 1025.0
20220523182546 59 0 2.0 7.0 0.00 0.00 0.00 53 1025.0
20220523182046 58 360 0.0 9.0 0.00 0.00 0.00 53 1025.2
20220523181557 58 0 2.0 9.0 0.00 0.00 0.00 52 1025.1
20220523181046 60 113 1.0 6.0 0.00 0.00 0.00 51 1025.1
20220523180547 58 360 0.0 6.0 0.00 0.00 0.00 55 1024.8
20220523180100 58 360 1.0 6.0 0.00 0.00 0.00 52 1025.0
20220523175557 57 360 0.0 8.0 0.00 0.00 0.00 54 1025.1
20220523175047 57 360 1.0 9.0 0.00 0.00 0.00 54 1025.2
20220523174548 57 360 1.0 9.0 0.00 0.00 0.00 53 1025.2
20220523174047 56 360 0.0 13.0 0.00 0.00 0.00 54 1025.3
20220523173545 56 360 0.0 13.0 0.00 0.00 0.00 52 1025.2
20220523173114 56 0 0.0 5.0 0.00 0.00 0.00 56 1025.3
20220523172550 55 0 0.0 5.0 0.00 0.00 0.00 56 1025.3
20220523172047 56 0 0.0 4.0 0.00 0.00 0.00 57 1025.3
20220523171606 56 360 1.0 5.0 0.00 0.00 0.00 56 1025.5
20220523171048 55 360 0.0 6.0 0.00 0.00 0.00 61 1025.4
20220523170549 55 360 1.0 6.0 0.00 0.00 0.00 60 1025.5
20220523170123 54 360 0.0 6.0 0.00 0.00 0.00 60 1025.5
20220523165546 55 0 0.0 8.0 0.00 0.00 0.00 59 1025.5
20220523165045 55 0 1.0 11.0 0.00 0.00 0.00 59 1025.5